Location: Crescent
(42.8242°N, 73.7329°W)
Time: 17:50:13
(UTC+00:00)

Vanguard 1 Rocket - Pass Details

Date: 20 February 2026
Orbit: 653 x 4214 km, 34.3° (Epoch: 8 March)

Event Time Altitude Azimuth Distance (km) Brightness Sun altitude
Rises 00:52:43 0° 279° (W) 6,807 13.2 -26.4°
Reaches altitude 10° 00:57:50 10° 269° (W) 6,256 12.6 -27.4°
Maximum altitude 01:13:56 27° 221° (SW) 5,829 11.6 -30.2°
Drops below altitude 10° 01:33:02 10° 173° (S) 7,300 11.7 -33.6°
Sets 01:40:00 0° 163° (SSE) 8,074 11.9 -34.8°
